Location: Commenchon
(49.6411°N, 3.1571°E)
Time: 20:34:48
(UTC+00:00)

Cosmos 1536 - Pass Details

Date: 15 May 2026
Orbit: 482 x 500 km, 82.5° (Epoch: 6 June)

Event Time Altitude Azimuth Distance (km) Brightness Sun altitude
Rises 23:05:51 0° 339° (NNW) 2,571 7.7 -20.8°
Reaches altitude 10° 23:08:13 10° 325° (NW) 1,687 6.2 -20.9°
Maximum altitude 23:11:13 24° 271° (W) 1,057 4.3 -20.9°
Enters shadow 23:11:46 23° 256° (WSW) 1,083 4.2 -20.9°
